Location: Newark
(35.2672°N, 80.7344°W)
Time: 13:40:07
(UTC+00:00)

Vanguard 2 Rocket - Pass Details

Date: 21 January 2020
Orbit: 553 x 3327 km, 32.9° (Epoch: 24 February)

Event Time Altitude Azimuth Distance (km) Brightness Sun altitude
Rises 09:02:24 0° 195° (SSW) 2,719 - -42.0°
Reaches altitude 10° 09:06:29 10° 151° (SSE) 1,995 - -41.1°
Maximum altitude 09:07:20 10° 140° (SE) 2,020 - -41.0°
Drops below altitude 10° 09:08:13 10° 129° (SE) 2,115 - -40.8°
Exits shadow 09:08:44 - 123° (ESE) 2,200 9.3 -40.7°
Sets 09:13:25 0° 90° (E) 3,541 10.8 -39.7°
